Volver al catálogo

BREEZE-M R/B

ActivoHEO
NORAD 44308·ROCKET BODY·🇷🇺 Russia

Lanzado May 30, 2019 desde Baikonur Cosmodrome

Loading…

Próximos Pases (próximas 24 horas)

TLE

ActualizadoSource: Space-Track

Época: Sep 10, 2026, 19:03 UTC

1 44308U 19031B   26253.79396657 -.00000323  00000-0  00000-0 0  9992
2 44308  17.5093 169.7993 5481996 286.6250  22.1962  2.00668384 53367

Sigue BREEZE-M R/B en tiempo real con AllMySat

Download on the App Store